Location: Theydon Bois
(51.6750°N, 0.1050°E)
Time: 11:56:39
(UTC+00:00)

Envisat - Pass Details

Date: 18 December 2019
Orbit: 764 x 766 km, 98.1° (Epoch: 18 January)

Event Time Altitude Azimuth Distance (km) Brightness Sun altitude
Rises 17:40:16 0° 163° (SSE) 3,222 6.3 -15.8°
Reaches altitude 10° 17:42:34 10° 164° (SSE) 2,300 5.5 -16.1°
Maximum altitude 17:47:39 89° 258° (WSW) 774 3.0 -16.9°
Drops below altitude 10° 17:52:47 10° 345° (NNW) 2,317 5.5 -17.6°
Sets 17:55:06 0° 346° (NNW) 3,247 6.2 -18.0°
